Back to catalog

DMSP 5D-2 F11 DEB

AliveSSO
NORAD 28317·DEBRIS·🇺🇸 United States

Launched Nov 28, 1991 from Vandenberg Space Force Base

Loading…

Next Passes (next 24 hours)

TLE

FreshSource: Space-Track

Epoch: Sep 14, 2026, 00:13 UTC

1 28317U 91082AE  26257.00935953  .00000663  00000-0  30680-3 0  9992
2 28317  98.8588 276.4886 0118575  36.0165 354.2002 14.20536289155825

Track DMSP 5D-2 F11 DEB in real time with AllMySat

Download on the App Store